Weather History for Punta Gorda, FL

Change the Weather History Date:

Saturday, February 4, 2012

  Actual Average Record
Temperature  
Mean Temperature 73 °F -  
Max Temperature 84 °F 72 °F 87 °F (2014)
Min Temperature 62 °F 50 °F 37 °F (2009)
Cooling Degree Days 8    
Growing Degree Days 23 (Base 50)    
Moisture  
Dew Point 62 °F    
Average Humidity 74    
Maximum Humidity 93    
Minimum Humidity 46    
Precipitation  
Precipitation 0.00 in - - ()
Sea Level Pressure  
Sea Level Pressure 30.14 in    
Wind  
Wind Speed 9 mph (East)    
Max Wind Speed 18 mph    
Max Gust Speed 25 mph    
Visibility 10 miles    
Events      
Averages and records for this station are not official NWS values.
T = Trace of Precipitation, MM = Missing Value Source: NWS Daily Summary

Daily Weather History Graph

Daily Weather History Graph

Search for Another Location

Airport:

Trip Planner

Search our weather history database for the weather conditions in past years. The results will help you decide how hot, cold, wet, or windy it might be!

Date:

Astronomy

Feb. 04, 2012 Rise Set
Actual Time 7:12 AM EST 6:11 PM EST
Civil Twilight 6:47 AM EST 6:36 PM EST
Nautical Twilight 6:20 AM EST 7:03 PM EST
Astronomical Twilight 5:52 AM EST 7:31 PM EST
Moon 3:17 PM EST (2/4) 4:26 AM EST (2/4)
Length of Visible Light 11h 48m
Length of Day
10h 59m
Waxing Gibbous, 89% of the Moon is Illuminated
Feb 4
Waxing Gibbous
Feb 7
Full
Feb 14
Last Quarter
Feb 21
New
Feb 29
First Quarter

Hourly Weather History & Observations

Time (EST) Temp. Heat Index Dew Point Humidity Pressure Visibility Wind Dir Wind Speed Gust Speed Precip Events Conditions
12:53 AM 64.0 °F - 60.1 °F 87% 30.20 in 10.0 mi East 6.9 mph - N/A   Clear
1:53 AM 64.0 °F - 60.1 °F 87% 30.19 in 10.0 mi ENE 8.1 mph - N/A   Clear
2:53 AM 63.0 °F - 60.1 °F 90% 30.17 in 10.0 mi ENE 6.9 mph - N/A   Clear
3:53 AM 64.0 °F - 61.0 °F 90% 30.16 in 10.0 mi East 8.1 mph - N/A   Clear
4:53 AM 62.1 °F - 59.0 °F 90% 30.15 in 9.0 mi ENE 6.9 mph - N/A   Clear
5:53 AM 62.1 °F - 60.1 °F 93% 30.16 in 7.0 mi ENE 5.8 mph - N/A   Clear
6:53 AM 62.1 °F - 60.1 °F 93% 30.17 in 8.0 mi ENE 5.8 mph - N/A   Clear
7:53 AM 63.0 °F - 61.0 °F 93% 30.19 in 7.0 mi East 5.8 mph - N/A   Clear
8:53 AM 70.0 °F - 64.0 °F 81% 30.18 in 10.0 mi ESE 10.4 mph 18.4 mph N/A   Clear
9:53 AM 75.0 °F - 63.0 °F 66% 30.19 in 10.0 mi ESE 18.4 mph 24.2 mph N/A   Clear
10:53 AM 77.0 °F - 63.0 °F 62% 30.19 in 10.0 mi East 17.3 mph 25.3 mph N/A   Partly Cloudy
11:53 AM 80.1 °F 81.2 °F 62.1 °F 54% 30.17 in 10.0 mi ESE 17.3 mph 23.0 mph N/A   Partly Cloudy
12:53 PM 82.0 °F 83.0 °F 62.1 °F 51% 30.13 in 10.0 mi ESE 12.7 mph 21.9 mph N/A   Mostly Cloudy
1:53 PM 82.0 °F 83.0 °F 62.1 °F 51% 30.11 in 10.0 mi SE 12.7 mph 19.6 mph N/A   Clear
2:53 PM 84.0 °F 84.4 °F 61.0 °F 46% 30.09 in 10.0 mi ESE 16.1 mph 20.7 mph N/A   Scattered Clouds
3:53 PM 82.0 °F 82.7 °F 61.0 °F 49% 30.08 in 10.0 mi ESE 15.0 mph 18.4 mph N/A   Mostly Cloudy
4:53 PM 80.1 °F 81.2 °F 62.1 °F 54% 30.07 in 10.0 mi East 13.8 mph - N/A   Mostly Cloudy
5:53 PM 77.0 °F - 63.0 °F 62% 30.09 in 10.0 mi East 8.1 mph - N/A   Partly Cloudy
6:53 PM 73.9 °F - 63.0 °F 68% 30.09 in 10.0 mi East 9.2 mph - N/A   Clear
7:53 PM 73.0 °F - 63.0 °F 71% 30.10 in 10.0 mi East 9.2 mph - N/A   Clear
8:53 PM 71.1 °F - 64.0 °F 78% 30.11 in 10.0 mi East 10.4 mph - N/A   Clear
9:53 PM 70.0 °F - 64.0 °F 81% 30.12 in 10.0 mi East 6.9 mph - N/A   Clear
10:53 PM 69.1 °F - 64.0 °F 84% 30.13 in 10.0 mi East 5.8 mph - N/A   Clear
11:53 PM 66.9 °F - 64.0 °F 90% 30.12 in 10.0 mi ENE 5.8 mph - N/A   Clear